[[{"header":{"parameterUnit":"m.s-1","parameterCategory":1,"la1":30.2991,"la2":30.254,"lo1":-89.0895,"lo2":-89.0444,"dy":0.0017,"dx":0.0017,"nx":28,"ny":28,"refTime":"2025-12-21T03:00:00:Z","depth":0,"parameterNumber":2,"parameterNumberName":"U-component_of_WINDS"},"data":[0,0,0,0,0,0,0,0,0,0,0,0,0,0,0,0,0,0,0,0,0,0,0,0,0,0,0,0,0,0,0,0,0,0,0,0,0,0,0,0,0,0,0,0,0,0,0,0,0,0,0,0,0,0,0,0,0,0,-1.7731,-1.7731,0,-1.7723,-1.7723,-1.7723,-1.7668,-1.7666,-1.7665,-1.7664,-1.7657,-1.7658,-1.7659,0,0,0,0,0,0,0,0,0,0,0,0,0,-1.7699,-1.77,-1.7731,-1.7731,-1.7731,-1.7723,-1.7723,-1.7723,-1.7668,-1.7666,-1.7665,-1.7663,-1.7656,-1.7658,-1.7659,0,0,0,0,0,0,0,0,0,0,0,0,0,-1.7704,-1.77,-1.7731,-1.7702,-1.77,-1.7723,-1.7723,-1.7723,-1.7668,-1.7666,-1.7664,-1.7662,-1.7656,-1.7658,-1.7659,-1.771,0,0,-1.7664,-1.7665,0,0,0,0,0,0,0,0,-1.7704,-1.7705,-1.7707,-1.7704,-1.7701,-1.7694,-1.7709,-1.7719,-1.7669,-1.768,-1.7664,-1.7661,-1.7671,-1.7671,-1.7674,-1.771,-1.7709,-1.7664,-1.7665,-1.7666,-1.7666,0,0,0,0,0,0,0,-1.7704,-1.7705,-1.7728,-1.7707,-1.7704,-1.769,-1.7689,-1.7711,-1.7687,-1.7679,-1.7675,-1.7675,-1.7669,-1.7673,-1.7674,-1.7709,-1.7664,-1.7666,-1.7667,-1.7667,-1.7786,-1.7788,0,0,0,0,0,0,-1.7707,-1.7705,-1.7728,-1.7728,-1.7698,-1.7692,-1.7691,-1.7699,-1.7687,-1.7683,-1.7677,-1.7672,-1.7671,-1.7672,-1.7673,-1.7732,-1.7666,-1.7667,-1.7668,-1.7784,-1.7786,-1.7789,0,0,0,0,0,0,-1.7707,-1.771,-1.7729,-1.7716,-1.7717,-1.7695,-1.7705,-1.77,-1.7703,-1.7685,-1.7681,-1.7685,-1.767,-1.7671,-1.7701,-1.7731,-1.7668,-1.767,-1.7781,-1.7785,-1.7788,-1.7849,0,0,0,0,0,0,-1.7706,-1.771,-1.7729,-1.7716,-1.7718,-1.7756,-1.7706,-1.7701,-1.7706,-1.77,-1.7691,-1.7688,-1.7668,-1.7699,-1.7703,-1.7732,-1.7671,-1.7778,-1.7783,-1.7786,-1.7844,-1.7854,-1.7862,0,0,0,0,0,-1.7705,-1.7746,-1.773,-1.7733,-1.7741,-1.7758,-1.7759,-1.7735,-1.7709,-1.7728,-1.7716,-1.7688,-1.7727,-1.7703,-1.7706,-1.7736,-1.7776,-1.7781,-1.7786,-1.784,-1.7852,-1.7862,0,0,0,0,0,0,-1.7763,-1.7744,-1.7726,-1.7764,-1.7763,-1.7749,-1.7772,-1.7749,-1.7755,-1.775,-1.772,-1.7718,-1.7753,-1.7748,-1.7721,-1.7785,-1.7747,-1.7753,-1.7787,-1.7798,-1.7807,-1.7807,-1.7672,0,0,0,0,0,-1.778,-1.7796,-1.7779,-1.7814,-1.7815,-1.7794,-1.78,-1.7782,-1.778,-1.7779,-1.777,-1.7769,-1.7781,-1.7789,-1.7799,-1.7844,-1.7841,-1.7866,-1.7875,-1.7883,-1.7888,-1.7911,-1.7922,-1.7805,-1.7805,-1.7805,0,0,-1.7816,-1.7808,-1.7819,-1.7826,-1.7823,-1.784,-1.7794,-1.7813,-1.7826,-1.7782,-1.781,-1.7803,-1.78,-1.7838,-1.7854,-1.7834,-1.792,-1.7889,-1.7895,-1.7896,-1.7917,-1.7928,-1.7938,-1.7808,-1.7808,-1.7807,0,0,-1.789,-1.7885,-1.7914,-1.7912,-1.7908,-1.7894,-1.7901,-1.789,-1.7884,-1.7912,-1.7879,-1.7894,-1.7915,-1.7914,-1.7917,-1.7991,-1.7966,-1.7995,-1.8042,-1.8065,-1.8074,-1.8082,-1.8108,-1.8118,-1.8001,-1.8001,-1.8001,0,-1.7935,-1.7958,-1.7932,-1.7954,-1.7958,-1.792,-1.7949,-1.7949,-1.7948,-1.7952,-1.793,-1.7956,-1.7952,-1.7989,-1.8007,-1.801,-1.8017,-1.7996,-1.8075,-1.8083,-1.809,-1.8114,-1.8124,-1.8004,-1.8004,-1.8004,-1.8003,0,-1.8014,-1.8031,-1.8055,-1.8055,-1.8062,-1.8088,-1.8066,-1.8076,-1.8058,-1.8046,-1.8074,-1.8068,-1.8076,-1.8083,-1.8065,-1.8118,-1.8106,-1.808,-1.8041,-1.8105,-1.8128,-1.8137,-1.801,-1.8008,-1.8007,-1.8006,0,0,-1.8123,-1.8109,-1.8118,-1.8118,-1.8111,-1.8124,-1.8148,-1.8156,-1.8165,-1.8166,-1.8186,-1.8205,-1.8181,-1.8184,-1.8166,-1.8186,-1.8245,-1.8158,-1.8157,-1.8174,-1.8302,-1.8321,-1.8332,-1.8229,-1.823,-1.8232,-1.8302,0,-1.8193,-1.8233,-1.8211,-1.8254,-1.8269,-1.8233,-1.8255,-1.8253,-1.8243,-1.8255,-1.8244,-1.8257,-1.8225,-1.8227,-1.8245,-1.8234,-1.827,-1.8229,-1.8246,-1.8247,-1.8247,-1.8344,-1.8364,-1.843,-1.8311,-1.8312,-1.8313,0,-1.828,-1.8285,-1.833,-1.832,-1.8326,-1.8345,-1.835,-1.8362,-1.836,-1.8351,-1.8355,-1.8332,-1.8355,-1.8318,-1.8349,-1.8322,-1.8328,-1.8323,-1.8325,-1.8325,-1.8284,-1.8346,-1.8451,-1.8461,-1.8327,-1.8326,-1.8325,0,-1.8355,-1.8373,-1.8402,-1.8403,-1.8392,-1.8407,-1.8403,-1.8398,-1.8405,-1.8409,-1.8413,-1.8421,-1.8425,-1.8432,-1.8412,-1.8386,-1.8446,-1.8407,-1.8439,-1.844,-1.8453,-1.8452,-1.856,-1.8458,-1.8458,-1.8458,-1.8458,0,-1.8435,-1.8464,-1.8435,-1.8453,-1.8484,-1.8458,-1.849,-1.8482,-1.8479,-1.8495,-1.8465,-1.848,-1.8453,-1.8467,-1.8451,-1.848,-1.8482,-1.8476,-1.8471,-1.8478,-1.8479,-1.8481,-1.8475,-1.8461,-1.846,-1.846,-1.8459,0,-1.8523,-1.8505,-1.8534,-1.8522,-1.852,-1.8543,-1.8533,-1.8549,-1.8537,-1.8558,-1.8561,-1.8542,-1.8556,-1.8537,-1.8549,-1.8539,-1.8578,-1.8567,-1.8579,-1.8575,-1.8608,-1.8605,-1.872,-1.8734,-1.8625,-1.8626,-1.8627,0,-1.8575,-1.8597,-1.8587,-1.8595,-1.8593,-1.8607,-1.8613,-1.8589,-1.8596,-1.8596,-1.8612,-1.8623,-1.8631,-1.8655,-1.8642,-1.8652,-1.864,-1.868,-1.8641,-1.8647,-1.864,-1.8638,-1.864,-1.8687,-1.8689,-1.869,-1.8691,0,-1.867,-1.866,-1.8669,-1.8676,-1.8684,-1.8688,-1.869,-1.8699,-1.8674,-1.8684,-1.8698,-1.8704,-1.8716,-1.8727,-1.8733,-1.873,-1.8706,-1.8703,-1.8711,-1.8718,-1.8723,-1.872,-1.8599,-1.87,-1.8699,-1.8699,-1.8698,-1.8698,-1.8741,-1.8758,-1.8754,-1.8766,-1.8765,-1.8767,-1.8782,-1.8772,-1.8782,-1.879,-1.8776,-1.8793,-1.879,-1.8796,-1.8795,-1.8808,-1.8791,-1.8803,-1.8806,-1.8809,-1.8813,-1.8722,-1.881,-1.8809,-1.8809,-1.8809,-1.8809,0,-1.8833,-1.8829,-1.884,-1.8844,-1.8853,-1.883,-1.8831,-1.8841,-1.8856,-1.8855,-1.8864,-1.8879,-1.8891,-1.888,-1.8889,-1.8902,-1.8891,-1.8905,-1.8903,-1.8903,-1.8829,-1.8821,-1.8913,-1.8913,-1.8913,-1.8913,-1.8913,-1.8913,-1.8882,-1.891,-1.8899,-1.8926,-1.8922,-1.8938,-1.8941,-1.8943,-1.8942,-1.8961,-1.897,-1.8963,-1.8958,-1.8967,-1.8976,-1.8973,-1.8977,-1.8995,-1.8987,-1.8918,-1.8908,-1.8898,-1.889,-1.8996,-1.8996,-1.906,-1.9061,-1.9061]},{"header":{"parameterUnit":"m.s-1","parameterCategory":1,"la1":30.2991,"la2":30.254,"lo1":-89.0895,"lo2":-89.0444,"dy":0.0017,"dx":0.0017,"nx":28,"ny":28,"refTime":"2025-12-21T03:00:00:Z","depth":0,"parameterNumber":3,"parameterNumberName":"V-component_of_WINDS"},"data":[0,0,0,0,0,0,0,0,0,0,0,0,0,0,0,0,0,0,0,0,0,0,0,0,0,0,0,0,0,0,0,0,0,0,0,0,0,0,0,0,0,0,0,0,0,0,0,0,0,0,0,0,0,0,0,0,0,0,0.6655,0.6655,0,0.668,0.668,0.6681,0.6686,0.6686,0.6686,0.6686,0.6714,0.6715,0.6715,0,0,0,0,0,0,0,0,0,0,0,0,0,0.6614,0.6615,0.6655,0.6655,0.6655,0.668,0.668,0.6681,0.6686,0.6686,0.6686,0.6686,0.6713,0.6714,0.6715,0,0,0,0,0,0,0,0,0,0,0,0,0,0.6635,0.6615,0.6655,0.6661,0.6662,0.668,0.668,0.6681,0.6686,0.6686,0.6686,0.6685,0.6713,0.6714,0.6716,0.673,0,0,0.672,0.672,0,0,0,0,0,0,0,0,0.6634,0.6636,0.666,0.6661,0.6662,0.668,0.6676,0.6697,0.6686,0.6677,0.6686,0.6685,0.6703,0.6705,0.671,0.6731,0.6732,0.672,0.6721,0.6721,0.6722,0,0,0,0,0,0,0,0.6632,0.6635,0.6665,0.666,0.6661,0.6664,0.6666,0.668,0.6691,0.6678,0.6678,0.6681,0.6703,0.6709,0.6711,0.6733,0.672,0.6721,0.6722,0.6723,0.6767,0.6768,0,0,0,0,0,0,0.6629,0.6634,0.6664,0.6666,0.6647,0.6664,0.6667,0.6674,0.6691,0.6693,0.6681,0.6681,0.6707,0.6709,0.6712,0.673,0.6721,0.6723,0.6723,0.6767,0.6767,0.6768,0,0,0,0,0,0,0.6628,0.6632,0.6663,0.665,0.6654,0.6665,0.6673,0.6675,0.6681,0.6694,0.6696,0.6685,0.6707,0.671,0.6725,0.6731,0.6723,0.6725,0.6766,0.6767,0.6767,0.6766,0,0,0,0,0,0,0.6627,0.6632,0.6636,0.665,0.6655,0.6675,0.6673,0.6675,0.6683,0.6683,0.6698,0.67,0.6707,0.6723,0.6727,0.6733,0.6726,0.6766,0.6767,0.6767,0.6766,0.6767,0.6767,0,0,0,0,0,0.6626,0.6635,0.6637,0.664,0.6661,0.6675,0.6678,0.6685,0.6683,0.6689,0.6697,0.6699,0.673,0.6725,0.6729,0.6735,0.6766,0.6766,0.6767,0.6765,0.6767,0.6767,0,0,0,0,0,0,0.6623,0.6637,0.6639,0.6653,0.6663,0.6676,0.6683,0.6686,0.6697,0.6697,0.6706,0.6709,0.6724,0.6731,0.6725,0.675,0.6748,0.6749,0.6745,0.6746,0.6747,0.6745,0.6727,0,0,0,0,0,0.6624,0.6634,0.6646,0.6658,0.6662,0.6672,0.6679,0.6683,0.6694,0.6698,0.6708,0.6719,0.6731,0.6739,0.6751,0.6767,0.6771,0.6773,0.6774,0.6775,0.6776,0.6786,0.6788,0.677,0.677,0.677,0,0,0.6626,0.6635,0.6641,0.6657,0.6665,0.6676,0.6675,0.6687,0.6695,0.67,0.6715,0.6723,0.6736,0.6752,0.6759,0.6758,0.6782,0.6776,0.6776,0.6778,0.6787,0.6789,0.679,0.6771,0.6771,0.6771,0,0,0.6636,0.6644,0.6654,0.6662,0.6674,0.6681,0.6683,0.6696,0.6701,0.6716,0.672,0.6731,0.6751,0.6761,0.6768,0.6782,0.6785,0.6785,0.679,0.6799,0.6801,0.6802,0.6808,0.6809,0.6787,0.6787,0.6787,0,0.6638,0.6653,0.6659,0.6671,0.6678,0.6682,0.6694,0.6701,0.6717,0.6723,0.6721,0.6747,0.6756,0.6775,0.6778,0.6783,0.6788,0.6784,0.68,0.6801,0.6803,0.6808,0.681,0.6787,0.6787,0.6787,0.6787,0,0.6655,0.6666,0.6673,0.6688,0.6696,0.6707,0.6716,0.6723,0.6727,0.6734,0.6749,0.676,0.6775,0.6779,0.6783,0.6799,0.6798,0.6798,0.6796,0.6804,0.6809,0.6812,0.6787,0.6787,0.6787,0.6787,0,0,0.6664,0.6682,0.6684,0.6691,0.6705,0.6714,0.6726,0.6739,0.6746,0.6757,0.6767,0.6785,0.6785,0.6793,0.6798,0.6807,0.6818,0.6806,0.6806,0.6808,0.6836,0.6836,0.6839,0.6819,0.682,0.682,0.6835,0,0.6677,0.6697,0.6703,0.672,0.6731,0.6735,0.6745,0.6755,0.6762,0.6773,0.6781,0.6793,0.6792,0.6797,0.6806,0.6814,0.6823,0.6813,0.6831,0.6831,0.6828,0.6841,0.6842,0.6855,0.6837,0.6838,0.6838,0,0.6693,0.6704,0.6722,0.6735,0.6739,0.6749,0.6762,0.6771,0.6783,0.6788,0.6797,0.6801,0.6815,0.6811,0.6831,0.6824,0.6831,0.6837,0.6837,0.684,0.6836,0.6845,0.686,0.6862,0.6841,0.6841,0.6841,0,0.6699,0.6718,0.6731,0.6737,0.6752,0.6758,0.6765,0.6776,0.6784,0.6796,0.6801,0.6814,0.6822,0.6833,0.6841,0.6837,0.686,0.6857,0.6865,0.6865,0.687,0.6869,0.6887,0.6873,0.6873,0.6873,0.6873,0,0.6713,0.6724,0.6734,0.6743,0.6756,0.6762,0.6776,0.6783,0.6793,0.6803,0.6808,0.6818,0.6828,0.6839,0.6846,0.6861,0.6865,0.6869,0.6871,0.6869,0.6869,0.6875,0.6874,0.6874,0.6874,0.6873,0.6873,0,0.6722,0.6729,0.6744,0.6757,0.676,0.6769,0.6781,0.6789,0.6796,0.681,0.6813,0.6824,0.6838,0.6847,0.6865,0.687,0.6887,0.6888,0.6882,0.6883,0.6891,0.6891,0.6914,0.6918,0.6901,0.6901,0.6901,0,0.673,0.6739,0.6752,0.6759,0.6766,0.6777,0.6785,0.6792,0.68,0.6814,0.6822,0.6836,0.6847,0.687,0.688,0.6894,0.6896,0.6903,0.6898,0.6896,0.6897,0.6897,0.6898,0.6904,0.6904,0.6904,0.6904,0,0.6744,0.6748,0.6758,0.677,0.6779,0.6789,0.6799,0.6805,0.6814,0.6823,0.6837,0.6846,0.6864,0.6879,0.6893,0.6901,0.6905,0.6906,0.6908,0.6907,0.6904,0.6907,0.6885,0.6905,0.6905,0.6905,0.6905,0.6905,0.6754,0.6762,0.6773,0.6785,0.6793,0.6802,0.6811,0.6819,0.683,0.6845,0.6849,0.6864,0.6876,0.6896,0.6904,0.6917,0.6916,0.692,0.6921,0.6922,0.6922,0.6901,0.6919,0.6919,0.6919,0.6919,0.6919,0,0.6769,0.6776,0.6787,0.6801,0.681,0.6811,0.6823,0.6831,0.6844,0.6854,0.6866,0.6882,0.6896,0.6907,0.6922,0.6929,0.6931,0.6933,0.6933,0.6935,0.6922,0.6918,0.6931,0.6931,0.6931,0.6931,0.6931,0.6931,0.6779,0.6793,0.6797,0.6815,0.6823,0.6836,0.6843,0.6852,0.686,0.6878,0.6889,0.6896,0.6907,0.6923,0.6936,0.6939,0.6945,0.6946,0.695,0.6937,0.6936,0.6935,0.6931,0.6947,0.6947,0.6962,0.6962,0.6962]}]]